DT_LEITURA;HR_LEITURA;MED-PressaoAtm[hPa];VAL-TempExt[oC];VAL-UmidExt[%UR];VAL-TempInt[oC];VAL-UmidInt[%UR];Dir-Vento[grau];Vel-Vento[m/s];Precipitação[mm/h]
04/09/2026;21:00:00;1012,1;-36,4;0;30,2;65;144;1,1;0,0
04/09/2026;21:05:00;1012,1;-36,3;0;30,1;65;152;1,1;0,0
04/09/2026;21:10:00;1012,2;-36,4;0;30,0;65;186;0,7;0,0
04/09/2026;21:15:00;1012,3;-36,4;0;29,9;65;158;1,0;0,0
04/09/2026;21:20:00;1012,2;-36,3;0;29,9;65;163;0,9;0,0
04/09/2026;21:25:00;1012,2;-36,3;0;29,8;65;165;1,2;0,0
04/09/2026;21:30:00;1012,2;-36,3;0;29,8;65;163;0,7;0,0
04/09/2026;21:35:00;1012,2;-36,3;0;29,8;64;197;0,6;0,0
04/09/2026;21:40:00;1012,2;-36,2;0;29,8;64;173;0,4;0,0
04/09/2026;21:45:00;1012,2;-36,2;0;29,8;64;6;0,5;0,0
04/09/2026;21:50:00;1012,2;-36,1;0;29,8;64;312;0,4;0,0
04/09/2026;21:55:00;1012,3;-36,1;0;29,7;64;278;0,5;0,0
04/09/2026;22:00:00;1012,4;-36,2;0;29,7;64;255;0,4;0,0
04/09/2026;22:05:00;1012,5;-36,1;0;29,7;64;296;0,3;0,0
04/09/2026;22:10:00;1012,5;-36,1;0;29,7;64;290;0,3;0,0
04/09/2026;22:15:00;1012,5;-36,2;0;29,6;64;120;0,4;0,0
04/09/2026;22:20:00;1012,5;-36,1;0;29,6;64;189;0,6;0,0
04/09/2026;22:25:00;1012,5;-36,1;0;29,5;65;165;0,6;0,0
04/09/2026;22:30:00;1012,6;-36,2;0;29,4;65;169;0,5;0,0
04/09/2026;22:35:00;1012,6;-36,2;0;29,4;64;311;0,4;0,0
04/09/2026;22:40:00;1012,6;-36,3;0;29,3;64;255;0,6;0,0
04/09/2026;22:45:00;1012,6;-36,3;0;29,3;64;296;0,6;0,0
04/09/2026;22:50:00;1012,5;-36,3;0;29,2;64;281;0,5;0,0
04/09/2026;22:55:00;1012,6;-36,3;0;29,2;64;344;0,6;0,0
04/09/2026;23:00:00;1012,6;-36,4;0;29,1;65;238;0,5;0,0
04/09/2026;23:05:00;1012,5;-36,4;0;29,0;65;243;0,6;0,0
04/09/2026;23:10:00;1012,5;-36,4;0;29,0;65;277;0,5;0,0
04/09/2026;23:15:00;1012,4;-36,5;0;28,9;66;315;0,7;0,0
04/09/2026;23:20:00;1012,4;-36,5;0;28,9;66;252;0,6;0,0
04/09/2026;23:25:00;1012,3;-36,5;0;28,8;67;299;0,7;0,0
04/09/2026;23:30:00;1012,4;-36,5;0;28,8;67;292;0,6;0,0
04/09/2026;23:35:00;1012,4;-36,5;0;28,7;67;278;0,5;0,0
04/09/2026;23:40:00;1012,4;-36,6;0;28,7;68;297;0,5;0,0
04/09/2026;23:45:00;1012,3;-36,6;0;28,6;68;232;0,5;0,0
04/09/2026;23:50:00;1012,2;-36,6;0;28,6;68;335;0,6;0,0
04/09/2026;23:55:00;1012,2;-36,6;0;28,6;68;358;0,5;0,0
